Weather History for Ogallala, NE

Change the Weather History Date:

Saturday, February 11, 2012

  Actual Average Record
Temperature  
Mean Temperature 8 °F -  
Max Temperature 14 °F 40 °F 77 °F (1962)
Min Temperature 2 °F 14 °F -18 °F (1981)
Degree Days  
Heating Degree Days 57    
Moisture  
Dew Point 0 °F    
Average Humidity 69    
Maximum Humidity 78    
Minimum Humidity 54    
Precipitation  
Precipitation 0.00 in - - ()
Sea Level Pressure  
Sea Level Pressure 30.51 in    
Wind  
Wind Speed 4 mph (SSE)    
Max Wind Speed 9 mph    
Max Gust Speed -    
Visibility 10 miles    
Events Snow    
Averages and records for this station are not official NWS values.
T = Trace of Precipitation, MM = Missing Value Source: NWS Daily Summary

Daily Weather History Graph

Daily Weather History Graph

Search for Another Location

Airport:

Trip Planner

Search our weather history database for the weather conditions in past years. The results will help you decide how hot, cold, wet, or windy it might be!

Date:

Astronomy

Feb. 11, 2012 Rise Set
Actual Time 6:47 AM MST 5:15 PM MST
Civil Twilight 6:18 AM MST 5:44 PM MST
Nautical Twilight 5:46 AM MST 6:16 PM MST
Astronomical Twilight 5:14 AM MST 6:48 PM MST
Moon 10:09 PM MST (2/11) 8:27 AM MST (2/11)
Length of Visible Light 11h 25m
Length of Day
10h 28m
Waning Gibbous, 81% of the Moon is Illuminated
Feb 11
Waning Gibbous
Feb 14
Last Quarter
Feb 21
New
Feb 29
First Quarter
Mar 8
Full

Hourly Weather History & Observations

Time (MST) Temp. Windchill Dew Point Humidity Pressure Visibility Wind Dir Wind Speed Gust Speed Precip Events Conditions
12:15 AM 9.1 °F -4.0 °F -0.4 °F 65% 30.48 in 10.0 mi ENE 9.2 mph - N/A   Overcast
12:35 AM 8.6 °F -2.6 °F -0.4 °F 67% 30.49 in 10.0 mi ENE 6.9 mph - N/A   Overcast
12:55 AM 8.4 °F -0.1 °F -0.2 °F 68% 30.51 in 10.0 mi East 4.6 mph - N/A   Overcast
1:15 AM 8.1 °F -0.5 °F -0.8 °F 67% 30.51 in 10.0 mi East 4.6 mph - N/A   Overcast
1:35 AM 7.7 °F -2.4 °F -0.8 °F 68% 30.52 in 10.0 mi East 5.8 mph - N/A Snow Light Snow
1:55 AM 7.2 °F -1.5 °F -1.3 °F 68% 30.52 in 10.0 mi ENE 4.6 mph - N/A   Mostly Cloudy
2:15 AM 7.2 °F -3.0 °F -1.3 °F 68% 30.52 in 10.0 mi East 5.8 mph - N/A   Mostly Cloudy
2:35 AM 6.8 °F -3.5 °F -1.8 °F 68% 30.53 in 10.0 mi ENE 5.8 mph - N/A   Mostly Cloudy
2:55 AM 5.9 °F -5.8 °F -2.0 °F 70% 30.52 in 10.0 mi East 6.9 mph - N/A   Scattered Clouds
3:15 AM 5.7 °F -4.8 °F -0.8 °F 75% 30.52 in 10.0 mi ESE 5.8 mph - N/A   Scattered Clouds
3:35 AM 5.5 °F -1.5 °F -0.8 °F 75% 30.53 in 10.0 mi ESE 3.5 mph - N/A   Scattered Clouds
3:55 AM 5.4 °F -5.2 °F -1.3 °F 74% 30.53 in 10.0 mi ESE 5.8 mph - N/A   Clear
4:15 AM 4.8 °F -2.3 °F -1.3 °F 76% 30.53 in 10.0 mi SE 3.5 mph - N/A   Scattered Clouds
4:35 AM 4.1 °F - -1.8 °F 76% 30.54 in 10.0 mi Calm Calm - N/A   Mostly Cloudy
5:15 AM 4.1 °F - -1.8 °F 76% 30.54 in 10.0 mi Calm Calm - N/A   Scattered Clouds
5:35 AM 3.7 °F - -2.2 °F 76% 30.54 in 10.0 mi Calm Calm - N/A   Clear
5:55 AM 3.2 °F - -2.2 °F 78% 30.54 in 10.0 mi Calm Calm - N/A   Scattered Clouds
6:15 AM 2.8 °F - -2.7 °F 78% 30.54 in 10.0 mi Calm Calm - N/A   Scattered Clouds
6:35 AM 3.0 °F - -2.4 °F 78% 30.55 in 10.0 mi Calm Calm - N/A   Mostly Cloudy
6:55 AM 3.0 °F - -2.9 °F 76% 30.55 in 10.0 mi Calm Calm - N/A   Overcast
7:15 AM 3.2 °F - -2.6 °F 77% 30.56 in 10.0 mi Calm Calm - N/A   Overcast
7:35 AM 3.9 °F -3.4 °F -2.2 °F 76% 30.56 in 10.0 mi South 3.5 mph - N/A   Overcast
7:55 AM 4.6 °F -2.5 °F -2.2 °F 73% 30.56 in 10.0 mi SE 3.5 mph - N/A   Overcast
8:15 AM 5.0 °F -4.1 °F -2.0 °F 73% 30.56 in 10.0 mi South 4.6 mph - N/A   Scattered Clouds
8:35 AM 5.9 °F -3.0 °F -2.0 °F 70% 30.57 in 10.0 mi SSE 4.6 mph - N/A   Clear
8:55 AM 6.1 °F -2.8 °F -1.8 °F 70% 30.57 in 10.0 mi South 4.6 mph - N/A   Clear
9:15 AM 6.8 °F -3.5 °F -1.5 °F 69% 30.56 in 10.0 mi South 5.8 mph - N/A   Clear
9:35 AM 7.5 °F -3.9 °F -0.9 °F 68% 30.56 in 10.0 mi South 6.9 mph - N/A   Clear
9:55 AM 7.5 °F -3.9 °F -1.3 °F 67% 30.57 in 10.0 mi South 6.9 mph - N/A   Clear
10:15 AM 7.9 °F -3.5 °F -1.3 °F 66% 30.57 in 10.0 mi SSE 6.9 mph - N/A   Clear
10:35 AM 8.2 °F -3.0 °F -0.9 °F 66% 30.57 in 10.0 mi South 6.9 mph - N/A   Clear
10:55 AM 8.6 °F -2.6 °F -0.0 °F 68% 30.58 in 10.0 mi SSE 6.9 mph - N/A   Mostly Cloudy
11:15 AM 8.8 °F -1.1 °F -0.0 °F 67% 30.57 in 10.0 mi SSE 5.8 mph - N/A   Scattered Clouds
11:35 AM 9.0 °F 0.6 °F -0.4 °F 66% 30.56 in 10.0 mi South 4.6 mph - N/A   Scattered Clouds
11:55 AM 10.2 °F 2.0 °F 0.1 °F 64% 30.55 in 10.0 mi SW 4.6 mph - N/A   Clear
12:15 PM 10.4 °F 0.8 °F -0.2 °F 62% 30.54 in 10.0 mi SSW 5.8 mph - N/A   Clear
12:35 PM 10.8 °F 4.5 °F -0.6 °F 60% 30.52 in 10.0 mi South 3.5 mph - N/A   Clear
12:55 PM 11.1 °F 3.1 °F 0.5 °F 62% 30.51 in 10.0 mi South 4.6 mph - N/A   Clear
1:15 PM 11.5 °F 2.1 °F 0.5 °F 61% 30.49 in 10.0 mi South 5.8 mph - N/A   Clear
1:35 PM 12.2 °F 6.1 °F 0.7 °F 60% 30.48 in 10.0 mi South 3.5 mph - N/A   Clear
1:55 PM 13.1 °F 4.0 °F 1.4 °F 60% 30.48 in 10.0 mi SSE 5.8 mph - N/A   Clear
2:15 PM 13.3 °F 4.2 °F 0.5 °F 57% 30.48 in 10.0 mi South 5.8 mph - N/A   Clear
2:35 PM 13.5 °F 4.4 °F 1.6 °F 59% 30.48 in 10.0 mi SSW 5.8 mph - N/A   Clear
2:55 PM 13.5 °F 5.8 °F -0.6 °F 54% 30.47 in 10.0 mi SSW 4.6 mph - N/A   Clear
3:15 PM 13.8 °F 8.0 °F 0.9 °F 56% 30.47 in 10.0 mi South 3.5 mph - N/A   Clear
3:35 PM 14.0 °F 8.2 °F 1.6 °F 58% 30.46 in 10.0 mi SSE 3.5 mph - N/A   Clear
3:55 PM 14.7 °F 7.3 °F 2.7 °F 59% 30.46 in 10.0 mi SSE 4.6 mph - N/A   Clear
4:15 PM 14.4 °F 6.9 °F 3.9 °F 63% 30.45 in 10.0 mi South 4.6 mph - N/A   Mostly Cloudy
4:35 PM 14.0 °F 3.9 °F 4.5 °F 66% 30.45 in 10.0 mi South 6.9 mph - N/A   Mostly Cloudy
4:55 PM 12.9 °F 3.8 °F 4.1 °F 68% 30.45 in 10.0 mi South 5.8 mph - N/A   Mostly Cloudy
5:15 PM 12.2 °F 6.1 °F 3.9 °F 69% 30.45 in 10.0 mi SSW 3.5 mph - N/A   Scattered Clouds
5:35 PM 11.5 °F - 3.6 °F 71% 30.45 in 10.0 mi Calm Calm - N/A   Scattered Clouds
5:55 PM 11.3 °F - 3.2 °F 70% 30.44 in 10.0 mi Calm Calm - N/A   Clear
6:15 PM 11.1 °F - 3.2 °F 70% 30.43 in 10.0 mi Calm Calm - N/A   Clear
6:35 PM 10.8 °F - 3.6 °F 73% 30.43 in 10.0 mi Calm Calm - N/A   Clear
6:55 PM 11.1 °F - 3.6 °F 72% 30.42 in 10.0 mi Calm Calm - N/A   Scattered Clouds
7:15 PM 8.6 °F - 3.0 °F 78% 30.41 in 10.0 mi Calm Calm - N/A   Scattered Clouds
7:35 PM 9.1 °F - 3.2 °F 77% 30.41 in 10.0 mi Calm Calm - N/A   Mostly Cloudy
7:55 PM 8.4 °F - 2.7 °F 77% 30.41 in 10.0 mi Calm Calm - N/A   Scattered Clouds
8:15 PM 8.2 °F - 2.3 °F 77% 30.41 in 10.0 mi Calm Calm - N/A   Clear
8:35 PM 7.2 °F - 1.4 °F 77% 30.41 in 10.0 mi Calm Calm - N/A   Clear
8:55 PM 7.7 °F - 1.2 °F 75% 30.40 in 10.0 mi Calm Calm - N/A   Clear
9:15 PM 7.2 °F - 0.5 °F 74% 30.40 in 10.0 mi Calm Calm - N/A   Clear
9:35 PM 8.4 °F 1.8 °F 0.9 °F 71% 30.40 in 10.0 mi South 3.5 mph - N/A   Clear
9:55 PM 8.6 °F - 1.0 °F 71% 30.39 in 10.0 mi Calm Calm - N/A   Clear
10:15 PM 8.4 °F - 1.0 °F 72% 30.38 in 10.0 mi Calm Calm - N/A   Clear
10:35 PM 7.9 °F -0.7 °F 1.4 °F 75% 30.36 in 10.0 mi South 4.6 mph - N/A   Clear
10:55 PM 9.0 °F -2.2 °F 2.3 °F 74% 30.35 in 10.0 mi South 6.9 mph - N/A   Clear
11:15 PM 8.6 °F -3.7 °F 2.3 °F 76% 30.34 in 10.0 mi South 8.1 mph - N/A   Clear
11:35 PM 8.4 °F -2.8 °F 2.7 °F 77% 30.33 in 10.0 mi South 6.9 mph - N/A   Clear
11:55 PM 8.1 °F -5.3 °F 2.5 °F 78% 30.32 in 10.0 mi South 9.2 mph - N/A   Scattered Clouds